CW0476 Weather Reports


time (UTC)temp
F
wind
direction
speed
knots
gust
knots
rain 1hr
in
rain 24hr
in
rain mn
in
humidity
%
barometer
mb
20260504184016 79 225 10.4 17.4 0.00 0.00 0.00 36 1005.2
20260504183018 80 225 10.4 21.7 0.00 0.00 0.00 36 1005.0
20260504182012 80 248 8.7 21.7 0.00 0.00 0.00 36 1005.2
20260504180008 80 225 11.3 19.1 0.00 0.00 0.00 35 1005.1
20260504175008 80 248 10.4 17.4 0.00 0.00 0.00 35 1004.9
20260504173009 81 225 8.7 17.4 0.00 0.00 0.00 35 1005.3
20260504171012 77 248 6.1 17.4 0.00 0.00 0.00 41 1005.5
20260504151016 70 158 0.0 13.0 0.00 0.00 0.00 47 1006.8
20260504081011 50 203 1.7 7.0 0.00 0.00 0.00 59 1008.2
20260504050006 50 135 0.0 1.7 0.00 0.00 0.00 64 1010.2
20260504045010 50 135 0.9 1.7 0.00 0.00 0.00 64 1010.2
20260504044013 50 135 0.0 1.7 0.00 0.00 0.00 64 1010.4
20260504034011 49 135 0.0 1.7 0.00 0.00 0.00 65 1010.9
20260504031009 49 135 0.0 1.7 0.00 0.00 0.00 65 1011.2
20260504030011 49 135 0.0 5.2 0.00 0.00 0.00 64 1011.3
20260504024007 49 135 0.0 4.3 0.00 0.00 0.00 65 1011.3
20260504022015 48 158 0.0 2.6 0.00 0.00 0.00 67 1011.4
20260504020007 47 113 0.0 4.3 0.00 0.00 0.00 70 1011.5
20260504015006 47 113 0.0 4.3 0.00 0.00 0.00 69 1011.4
20260504014008 48 135 0.0 1.7 0.00 0.00 0.00 69 1011.5
20260504013009 48 135 0.0 0.9 0.00 0.00 0.00 68 1011.5
20260504005009 47 135 0.9 7.0 0.00 0.00 0.00 70 1011.3
20260504004011 47 135 1.7 7.0 0.00 0.00 0.00 70 1011.1
20260504003008 47 158 0.0 7.0 0.00 0.00 0.00 70 1011.6
20260504002010 47 158 0.9 10.4 0.00 0.00 0.00 70 1011.5
20260503235014 47 135 0.9 5.2 0.00 0.00 0.00 70 1011.6
20260503234014 47 113 0.9 1.7 0.00 0.00 0.00 71 1011.7
20260503233017 47 135 0.0 1.7 0.00 0.00 0.00 71 1011.9
20260503232015 47 135 0.0 1.7 0.00 0.00 0.00 71 1012.0
20260503231009 47 135 0.0 1.7 0.00 0.00 0.00 72 1012.1
20260503225007 48 135 0.0 6.1 0.00 0.00 0.00 68 1012.5
20260503222010 51 248 11.3 19.1 0.00 0.00 0.00 59 1013.5
20260503221009 52 248 7.8 25.2 0.00 0.00 0.00 55 1013.4
20260503220010 53 248 17.4 25.2 0.00 0.00 0.00 51 1013.4
20260503215013 54 248 12.2 18.2 0.00 0.00 0.00 48 1013.5
20260503214014 56 248 6.1 20.9 0.00 0.00 0.00 45 1013.2
20260503212013 59 248 6.1 18.2 0.00 0.00 0.00 33 1012.7
20260503211011 60 248 6.1 19.1 0.00 0.00 0.00 33 1012.7
20260503202013 62 225 8.7 14.8 0.00 0.00 0.00 33 1013.1
20260503201013 62 248 6.1 17.4 0.00 0.00 0.00 32 1013.2
20260503193008 64 225 7.0 20.9 0.00 0.00 0.00 32 1013.6
20260503191016 67 248 4.3 15.6 0.00 0.00 0.00 32 1013.7